Date String (YYYY-MM-DD hh:mm:ss) UTC,Instrument flags,Ambient pressure (hPa),Sample flow (lpm),Bypass flow (lpm),Sample temperature (°C),Ambient temperature (°C),ASC tube jacket temperature (°C),LED temperature (°C),Box temperature (°C),Sample RH (%),Span deviation,Mass concentration (μg/m³),Mass concentration (μg/m³),Mass concentration (μg/m³)
DateTimeUTC,F1_M11,P_M11,Q1_M11,Q2_M11,T1_M11,T2_M11,T3_M11,T4_M11,T5_M11,U1_M11,ZSPAN_M11,X0_M11,X2_M11,X1_M11
2022-06-26 05:00:00,,0837.2,5.00,0.00,29.7,28.4,00.0,38.5,31.5,25.9,0000.0,0012.98,0004.74,0004.07
2022-06-26 05:01:00,,0837.1,5.00,0.00,29.7,28.5,00.0,38.5,31.6,25.9,0000.0,0013.18,0004.78,0004.07
2022-06-26 05:02:00,,0837.1,5.01,0.00,29.7,28.5,00.0,38.5,31.6,25.8,0000.0,0012.89,0004.84,0004.07
2022-06-26 05:03:00,,0837.1,5.00,0.00,29.7,28.6,00.0,38.5,31.6,25.8,0000.0,0013.31,0004.85,0004.07
2022-06-26 05:04:00,,0837.2,5.00,0.00,29.7,28.7,00.0,38.5,31.6,25.7,0000.0,0012.79,0004.87,0004.08
2022-06-26 05:05:00,,0837.2,5.02,0.00,29.8,28.7,00.0,38.6,31.7,25.7,0000.0,0012.74,0004.89,0004.09
2022-06-26 05:06:00,,0837.2,5.00,0.00,29.8,28.8,00.0,38.6,31.7,25.6,0000.0,0012.47,0004.88,0004.10
2022-06-26 05:07:00,,0837.2,4.99,0.00,29.8,28.8,00.0,38.6,31.7,25.5,0000.0,0011.66,0004.85,0004.10
2022-06-26 05:08:00,,0837.2,5.01,0.00,29.8,28.8,00.0,38.6,31.8,25.4,0000.0,0011.93,0004.86,0004.10
2022-06-26 05:09:00,,0837.1,5.01,0.00,29.8,28.9,00.0,38.6,31.7,25.5,0000.0,0012.11,0004.83,0004.09
2022-06-26 05:10:00,,0837.1,4.99,0.00,29.9,28.9,00.0,38.6,31.7,25.6,0000.0,0012.03,0004.83,0004.09
2022-06-26 05:11:00,,0837.1,4.99,0.00,29.9,28.9,00.0,38.6,31.8,25.5,0000.0,0011.84,0004.82,0004.10
2022-06-26 05:12:00,,0837.2,5.00,0.00,29.9,29.0,00.0,38.7,31.8,25.5,0000.0,0012.32,0004.84,0004.11
2022-06-26 05:13:00,,0837.2,5.00,0.00,29.9,29.0,00.0,38.7,31.8,25.5,0000.0,0012.69,0004.87,0004.11
2022-06-26 05:14:00,,0837.2,5.00,0.00,29.9,29.0,00.0,38.7,31.9,25.7,0000.0,0013.09,0004.91,0004.11
2022-06-26 05:15:00,,0837.2,5.00,0.00,29.9,29.0,00.0,38.7,31.9,25.7,0000.0,0012.96,0004.90,0004.11
2022-06-26 05:16:00,,0837.2,5.00,0.00,30.0,29.0,00.0,38.7,31.9,25.9,0000.0,0012.97,0004.90,0004.11
2022-06-26 05:17:00,,0837.2,5.00,0.00,29.9,28.3,00.0,38.7,31.7,26.1,0000.0,0012.94,0004.94,0004.11
2022-06-26 05:18:00,,0837.2,5.00,0.00,29.9,27.7,00.0,38.6,31.5,26.3,0000.0,0013.39,0004.93,0004.10
2022-06-26 05:19:00,,0837.2,5.00,0.00,29.8,27.5,00.0,38.6,31.5,26.6,0000.0,0012.75,0004.96,0004.10
2022-06-26 05:20:00,,0837.2,5.00,0.00,29.7,27.5,00.0,38.6,31.4,26.7,0000.0,0013.20,0004.99,0004.10
2022-06-26 05:21:00,,0837.2,5.00,0.00,29.7,27.6,00.0,38.5,31.4,26.6,0000.0,0013.09,0004.96,0004.09
2022-06-26 05:22:00,,0837.2,5.00,0.00,29.7,27.8,00.0,38.5,31.4,26.5,0000.0,0013.04,0004.94,0004.09
2022-06-26 05:23:00,,0837.2,4.99,0.00,29.6,27.9,00.0,38.5,31.4,26.6,0000.0,0012.03,0004.88,0004.10
2022-06-26 05:24:00,,0837.2,4.99,0.00,29.6,28.0,00.0,38.5,31.4,26.7,0000.0,0011.44,0004.82,0004.09
2022-06-26 05:25:00,,0837.2,5.00,0.00,29.6,28.1,00.0,38.5,31.5,26.9,0000.0,0010.97,0004.77,0004.10
2022-06-26 05:26:00,,0837.2,5.00,0.00,29.6,28.2,00.0,38.5,31.5,26.9,0000.0,0010.94,0004.78,0004.09
2022-06-26 05:27:00,,0837.2,5.00,0.00,29.7,28.3,00.0,38.5,31.5,26.9,0000.0,0011.06,0004.81,0004.09
2022-06-26 05:28:00,,0837.1,4.99,0.00,29.7,28.4,00.0,38.5,31.5,26.9,0000.0,0011.08,0004.80,0004.10
2022-06-26 05:29:00,,0837.2,5.00,0.00,29.7,28.5,00.0,38.5,31.6,26.8,0000.0,0011.02,0004.81,0004.12
2022-06-26 05:30:00,,0837.2,5.00,0.00,29.7,28.6,00.0,38.5,31.6,26.7,0000.0,0010.86,0004.80,0004.13
2022-06-26 05:31:00,,0837.2,5.00,0.00,29.7,28.6,00.0,38.5,31.6,26.5,0000.0,0010.49,0004.79,0004.15
2022-06-26 05:32:00,,0837.2,5.01,0.00,29.7,28.7,00.0,38.6,31.7,26.4,0000.0,0010.98,0004.84,0004.16
2022-06-26 05:33:00,,0837.2,5.01,0.00,29.8,28.7,00.0,38.6,31.7,25.9,0000.0,0011.10,0004.88,0004.18
2022-06-26 05:34:00,,0837.2,4.99,0.00,29.8,28.8,00.0,38.6,31.7,25.7,0000.0,0011.77,0004.91,0004.19
2022-06-26 05:35:00,,0837.2,5.01,0.00,29.8,28.8,00.0,38.6,31.7,25.8,0000.0,0011.70,0004.93,0004.20
2022-06-26 05:36:00,,0837.3,5.00,0.00,29.8,28.8,00.0,38.6,31.7,25.9,0000.0,0011.74,0004.93,0004.21
2022-06-26 05:37:00,,0837.2,5.01,0.00,29.8,28.9,00.0,38.6,31.7,26.0,0000.0,0011.66,0004.93,0004.23
2022-06-26 05:38:00,,0837.3,5.00,0.00,29.9,28.9,00.0,38.6,31.7,25.9,0000.0,0011.70,0004.95,0004.25
2022-06-26 05:39:00,,0837.3,4.99,0.00,29.9,29.0,00.0,38.7,31.8,25.7,0000.0,0011.68,0004.95,0004.24
2022-06-26 05:40:00,,0837.3,5.00,0.00,29.9,29.0,00.0,38.7,31.8,25.7,0000.0,0011.33,0004.95,0004.24
2022-06-26 05:41:00,,0837.3,5.00,0.00,29.9,29.0,00.0,38.7,31.9,25.5,0000.0,0011.93,0004.93,0004.24
2022-06-26 05:42:00,,0837.3,4.99,0.00,29.9,29.1,00.0,38.7,31.9,25.6,0000.0,0012.66,0004.96,0004.23
2022-06-26 05:43:00,,0837.3,5.01,0.00,30.0,28.9,00.0,38.7,31.8,25.4,0000.0,0012.28,0004.96,0004.23
2022-06-26 05:44:00,,0837.4,5.00,0.00,29.9,28.1,00.0,38.6,31.6,25.5,0000.0,0012.99,0004.95,0004.21
2022-06-26 05:45:00,,0837.4,5.00,0.00,29.8,27.7,00.0,38.6,31.5,25.7,0000.0,0012.69,0004.94,0004.18
2022-06-26 05:46:00,,0837.3,5.00,0.00,29.7,27.5,00.0,38.6,31.4,26.0,0000.0,0012.61,0004.95,0004.16
2022-06-26 05:47:00,,0837.4,5.00,0.00,29.7,27.6,00.0,38.6,31.4,26.3,0000.0,0012.29,0004.92,0004.13
2022-06-26 05:48:00,,0837.4,5.00,0.00,29.7,27.7,00.0,38.5,31.4,26.7,0000.0,0012.07,0004.91,0004.10
2022-06-26 05:49:00,,0837.4,5.00,0.00,29.6,27.8,00.0,38.5,31.4,27.0,0000.0,0012.10,0004.87,0004.07
2022-06-26 05:50:00,,0837.4,5.00,0.00,29.6,27.9,00.0,38.5,31.4,27.3,0000.0,0012.41,0004.83,0004.02
2022-06-26 05:51:00,,0837.4,5.00,0.00,29.6,28.0,00.0,38.5,31.4,27.6,0000.0,0012.69,0004.82,0003.97
2022-06-26 05:52:00,,0837.4,5.00,0.00,29.6,28.1,00.0,38.5,31.4,27.8,0000.0,0011.82,0004.79,0003.92
2022-06-26 05:53:00,,0837.5,5.01,0.00,29.6,28.2,00.0,38.5,31.5,28.0,0000.0,0010.89,0004.72,0003.86
2022-06-26 05:54:00,,0837.5,5.01,0.00,29.6,28.3,00.0,38.5,31.5,28.2,0000.0,0011.12,0004.63,0003.79
2022-06-26 05:55:00,,0837.5,5.00,0.00,29.6,28.4,00.0,38.5,31.5,28.2,0000.0,0010.95,0004.56,0003.75
2022-06-26 05:56:00,,0837.5,5.01,0.00,29.6,28.4,00.0,38.5,31.5,28.3,0000.0,0011.05,0004.54,0003.71
2022-06-26 05:57:00,,0837.6,5.00,0.00,29.7,28.5,00.0,38.5,31.5,28.7,0000.0,0011.05,0004.49,0003.66
2022-06-26 05:58:00,,0837.6,5.00,0.00,29.7,28.5,00.0,38.5,31.6,29.1,0000.0,0011.10,0004.46,0003.63
2022-06-26 05:59:00,,0837.7,5.00,0.00,29.7,28.6,00.0,38.5,31.6,29.7,0000.0,0011.10,0004.44,0003.60
